Location: Chlumany
(48.8833°N, 14.0667°E)
Time: 04:30:46
(UTC+00:00)

Daily predictions for brighter satellites

Satellite Brightness Start Highest point End
(mag) Time Altitude Azimuth Time Altitude Azimuth Time Altitude Azimuth
CZ-2D R/B 3.9 00:00:22 10° NNE 00:03:14 26° NE 00:03:14 26° NE
Cosmos 2263 Rocket 4.1 00:00:38 10° NNW 00:02:40 23° NNW 00:02:40 23° NNW
SL-16 R/B 3.3 00:12:38 50° NNE 00:12:38 50° NNE 00:17:40 10° N
ADEOS Rocket 3.6 00:14:35 66° NE 00:14:35 66° NE 00:21:34 10° N
ADEOS II 4.1 00:11:31 10° NE 00:14:27 21° ENE 00:14:27 21° ENE
Cosmos 2322 Rocket 4.1 00:18:41 22° ENE 00:18:41 22° ENE 00:21:39 10° NE
USA 234 3.6 00:15:59 10° NE 00:21:49 59° N 00:21:49 59° N
CENTAUR R/B 4.4 00:41:04 21° NW 00:44:15 29° NNW 00:50:54 10° NE
Cosmos 1464 Rocket 4.4 00:47:15 59° NE 00:47:15 59° NE 00:52:17 10° NNE
Cosmos 2360 Rocket 3.7 00:54:00 28° E 00:54:00 28° E 00:58:25 10° NE
Cosmos 1844 Rocket 3.5 00:50:09 10° NNW 00:55:35 47° NE 00:55:52 47° ENE
ATLAS 5 CENTAUR R/B 4.0 01:01:51 15° E 01:01:51 15° E 01:03:08 10° ENE
IDEFIX/ARIANE 42P 3.7 01:04:05 10° NNE 01:08:58 37° E 01:08:59 37° E
Cosmos 2219 Rocket 4.3 01:13:46 15° ESE 01:15:38 18° E 01:19:14 10° ENE
Cosmos 1980 Rocket 3.4 01:17:17 33° NNW 01:17:17 33° NNW 01:21:39 10° NNE
SL-16 R/B 2.4 01:21:47 69° NNE 01:21:47 69° NNE 01:26:46 10° NNE
GEOS 3 Rocket 4.2 01:16:10 10° NE 01:20:29 51° N 01:20:29 51° N
Resurs 1-4 Rocket 2.9 01:19:11 10° N 01:23:00 43° NNW 01:23:00 43° NNW
Cosmos 2344 4.3 01:15:46 10° NW 01:24:53 60° WSW 01:37:30 10° SSE
Nadezhda 4 Rocket 4.2 01:20:18 10° NNW 01:25:24 57° NW 01:25:24 57° NW
Cosmos 1190 Rocket 4.3 01:23:08 10° NNW 01:27:45 62° NNE 01:27:45 62° NNE
Cosmos 1140 Rocket 4.5 01:23:23 10° NNW 01:26:34 39° NNW 01:26:34 39° NNW
Cosmos 1844 4.0 01:22:55 10° NNW 01:28:44 68° ENE 01:31:13 35° SE
Aureole 3 4.3 01:32:27 73° NW 01:32:27 73° NW 01:37:26 10° N
ATLAS 3B R/B 3.3 01:38:02 40° WNW 01:39:12 44° NW 01:45:48 10° NE
Cosmos 1624 Rocket 4.5 01:44:07 51° SE 01:44:37 53° ESE 01:49:44 10° NNE
CZ-2D R/B 3.0 01:40:21 10° N 01:44:32 37° NW 01:44:32 37° NW
SL-16 R/B 3.9 01:57:44 24° WNW 01:57:44 24° WNW 02:00:54 10° NW
ADEOS II 2.2 01:50:28 10° N 01:55:22 59° NW 01:55:22 59° NW
CRYOSAT 2 4.3 01:51:11 10° N 01:56:05 84° E 01:56:07 84° ESE
NOSS 3-1 (A) 4.5 01:56:57 26° SSE 01:58:51 33° ESE 02:04:13 10° NE
Meteor 2-2 Rocket 4.1 01:58:18 67° S 01:59:06 90° NW 02:04:46 10° NNE
Cosmos 2279 Rocket 4.5 01:55:58 26° SSE 01:59:24 57° E 02:05:30 10° NNE
Cosmos 1092 Rocket 3.8 01:53:58 10° NNW 02:00:04 64° W 02:00:30 62° WSW
ADEOS Rocket 4.5 02:01:32 27° WNW 02:01:32 27° WNW 02:06:28 10° NNW
Cosmos 2322 Rocket 2.2 02:00:31 60° WNW 02:00:48 61° WNW 02:06:24 10° NNE
NPP 4.5 01:58:26 10° N 02:02:56 35° NW 02:02:56 35° NW
USA 234 4.1 01:58:46 10° ENE 02:04:52 44° N 02:09:09 19° WNW
SL-08 R/B 3.7 02:08:50 10° SSE 02:13:23 61° ENE 02:17:56 10° N
Cosmos 1743 Rocket 3.5 02:09:51 10° N 02:14:17 82° ENE 02:15:08 58° SSE
Cosmos 2333 Rocket 2.6 02:12:10 35° S 02:14:20 58° ESE 02:19:54 10° NE
CBERS-1 3.9 02:09:41 10° NNE 02:14:49 74° WNW 02:15:32 63° SW
Cosmos 1634 Rocket 3.9 02:13:35 48° SSW 02:15:22 74° W 02:21:35 10° N
USA 32 4.1 02:14:35 39° S 02:16:33 79° E 02:21:50 10° N
Lacrosse 4 Rocket 2.1 02:13:44 10° NNW 02:17:49 54° NE 02:21:58 10° SE
Cosmos 2333 4.3 02:17:33 42° S 02:19:26 73° ESE 02:25:03 10° NNE
Cosmos 2221 2.7 02:22:58 54° WNW 02:22:58 54° WNW 02:27:00 10° N
NOSS 2-3 (D) 3.6 02:24:03 58° S 02:24:42 68° SE 02:29:30 10° NE
Cosmos 676 Rocket 3.8 02:19:44 10° NNW 02:24:55 70° WSW 02:30:03 10° SSE
ALOS 4.0 02:22:21 10° NNE 02:26:30 30° E 02:30:36 10° SSE
ARIANE 5 R/B 2.7 02:21:49 10° NNE 02:26:57 68° ESE 02:29:44 27° S
Helios 1B rocket 4.1 02:24:08 10° N 02:26:29 22° NW 02:26:29 22° NW
COSMOS 2441 4.3 02:23:09 10° N 02:28:05 77° WNW 02:29:22 50° SSW
Cosmos 1842 Rocket 3.8 02:33:09 49° WNW 02:33:09 49° WNW 02:37:27 10° N
Cosmos 2142 Rocket 4.5 02:31:01 29° SSW 02:34:34 78° W 02:40:59 10° N
Cosmos 2056 Rocket 3.5 02:35:06 45° WSW 02:36:30 62° WNW 02:41:41 10° NNE
Cosmos 2360 Rocket 2.4 02:35:47 41° WSW 02:37:21 53° NW 02:42:54 10° NNE
NOSS 2-3 (C) 3.5 02:37:43 54° SW 02:38:42 89° NW 02:43:37 10° NE
Meteor 1-20 Rocket 4.1 02:33:30 10° NNW 02:39:09 87° W 02:44:40 10° S
Cosmos 1844 Rocket 3.8 02:34:21 10° NW 02:37:22 26° WNW 02:37:22 26° WNW
Cosmos 1271 Rocket 2.6 02:40:18 58° SSW 02:40:59 77° WNW 02:44:54 10° N
ATLAS 5 CENTAUR R/B 1.6 02:43:22 48° W 02:44:08 57° NW 02:48:38 10° NE
BREEZE-M DEB (TANK) 2.9 02:43:16 34° SSW 02:44:36 48° SSE 02:47:19 10° ENE
NOSS 3-1 (C) 3.2 02:42:54 37° SW 02:45:13 79° NW 02:51:40 10° NE
MOS 1 Rocket 3.2 02:42:18 10° SSE 02:47:01 85° ENE 02:51:30 10° NNW
IRS-1D 4.4 02:43:31 10° N 02:48:16 33° WNW 02:49:26 30° W
IDEFIX/ARIANE 42P 3.3 02:43:45 10° N 02:48:32 36° WNW 02:49:47 32° W
Geosat 4.1 02:44:55 10° SE 02:49:56 79° ENE 02:54:59 10° NNW
RUBIN 8/PSLV 4.5 02:46:08 10° N 02:50:31 76° WNW 02:52:30 32° SSW
Spot 4 Rocket 4.4 02:45:41 10° NNE 02:50:50 65° ESE 02:55:56 10° S
CZ-2C R/B 2.7 02:46:03 10° NNE 02:51:15 73° ESE 02:56:20 11° S
Cosmos 1933 3.2 02:49:46 30° S 02:51:39 89° W 02:55:41 10° N
Cosmos 292 Rocket 4.0 02:50:40 38° WSW 02:52:07 52° WNW 02:56:50 10° NNE
Cosmos 1500 3.9 02:48:30 10° N 02:52:12 54° ENE 02:55:53 10° SSE
Cosmos 1932 4.3 02:48:46 10° NW 02:55:01 84° SW 03:01:16 10° SSE
Cosmos 1420 Rocket 4.1 02:52:47 32° SW 02:55:11 63° WNW 03:00:27 10° NNE
MSX 4.2 02:50:41 10° N 02:56:09 45° WNW 02:58:45 28° WSW
Cosmos 1954 Rocket 4.4 02:52:23 10° NW 02:57:06 36° WSW 02:59:53 21° SSW
Cosmos 2219 Rocket 2.1 02:55:31 25° SSW 02:58:52 82° WNW 03:04:30 10° NNE
BREEZE-M DEB (TANK) 3.4 02:47:58 10° WNW 03:00:29 80° SSW 03:04:09 10° ESE
Cosmos 1980 Rocket 4.5 03:00:49 10° NW 03:02:22 11° NNW 03:03:54 10° N
Resurs 1-4 Rocket 4.2 03:01:50 10° NW 03:03:03 11° NW 03:04:04 10° WNW
IRS-1C 4.3 02:58:48 10° N 03:03:58 52° WNW 03:07:02 24° SW
FENGYUN 3A 3.8 02:59:53 10° NNE 03:05:18 75° ESE 03:10:40 10° S
SL-16 R/B 3.7 03:03:39 17° WNW 03:05:58 22° NW 03:10:17 10° N
Cosmos 1606 4.2 03:06:15 21° WNW 03:06:15 21° WNW 03:08:59 10° NNW
Cosmos 2278 Rocket 2.3 03:01:41 10° NNW 03:07:24 79° ENE 03:13:05 10° SSE
Cosmos 1655 Rocket 3.9 03:01:39 10° NNW 03:07:50 69° W 03:14:00 10° S
Cosmos 1805 Rocket 3.9 03:06:34 10° NNW 03:10:45 44° W 03:14:58 10° SSW
Meteor 1-26 Rocket 4.2 03:07:01 10° S 03:12:40 88° E 03:18:12 10° NNE
Cosmos 1151 Rocket 3.3 03:11:13 10° S 03:15:34 71° E 03:19:57 10° NNE
Cosmos 1633 Rocket 3.1 03:12:08 10° N 03:16:35 82° ENE 03:21:01 10° SSE
COSMOS 2428 2.7 03:12:33 17° SW 03:16:59 76° WNW 03:22:43 10° NNE
Cosmos 2322 3.9 03:13:36 21° SW 03:17:20 57° WNW 03:23:00 10° NNE
Sich 1 3.3 03:15:46 10° NNW 03:20:00 45° W 03:24:13 10° SSW
Aureole 1 Rocket 3.6 03:21:52 10° NNW 03:27:32 70° ENE 03:31:45 10° SSE
USA 229 DEB 3.6 03:22:29 17° SW 03:27:42 75° NW 03:34:40 10° NE
USA 229 3.6 03:22:33 17° SW 03:27:48 76° NW 03:34:46 10° NE
CZ-2D R/B 4.1 03:23:57 10° N 03:28:07 42° WNW 03:31:21 15° SW
Cosmos 1110 Rocket 4.2 03:23:20 10° SSW 03:28:37 74° ESE 03:33:54 10° NNE
NOSS 2 (A) 4.2 03:25:57 10° NW 03:28:48 79° NE 03:31:16 10° SE
Meteor 2-8 Rocket 4.5 03:22:59 10° SSW 03:28:58 58° WNW 03:34:59 10° N
Cosmos 1741 Rocket 4.1 03:23:59 10° NNW 03:29:08 53° WSW 03:34:13 10° S
NOSS 2-3 (E) 4.4 03:27:12 20° W 03:29:50 41° NW 03:34:42 10° NE
ATLAS 3B R/B 4.3 03:26:20 10° WNW 03:31:44 24° N 03:37:19 10° NE
Cosmos 1943 Rocket 4.0 03:28:22 10° NNW 03:33:32 35° NE 03:38:41 10° ESE
ADEOS II 4.1 03:32:35 10° NNW 03:34:19 12° NW 03:36:02 10° WNW
Cosmos 1666 2.6 03:32:20 10° N 03:36:06 87° W 03:39:53 10° S
Gbstr 26 Del rocket 4.3 03:28:19 10° WNW 03:36:12 88° SSW 03:42:50 10° ESE
Cosmos 1782 3.1 03:33:42 11° SSW 03:37:25 45° WNW 03:41:13 10° N
NOSS 2-2 (E) 3.5 03:34:19 10° SSW 03:37:37 56° SE 03:41:16 10° NE
Cosmos 1850 Rocket 4.3 03:34:17 10° NW 03:39:12 42° WSW 03:44:08 10° S
Meteor 2-15 4.5 03:33:58 10° SSW 03:39:56 60° WNW 03:45:59 10° N
PAYLOAD A 4.3 03:37:46 10° N 03:42:09 39° WNW 03:46:31 10° SW
Cosmos 1980 3.9 03:36:45 10° SSW 03:42:22 74° ESE 03:48:02 10° NNE
NOSS 5 (C) 4.3 03:39:55 10° NW 03:42:57 63° SW 03:46:33 10° SSE
Meteor 1-14 Rocket 4.3 03:40:10 10° NNW 03:45:59 62° W 03:51:36 10° S
Cosmos 2322 Rocket 4.0 03:42:39 10° WNW 03:46:04 16° NW 03:49:30 10° N
USA 234 3.9 03:40:57 10° E 03:47:16 55° NNE 03:53:36 10° WNW
NOSS 3-1 (A) 3.6 03:44:24 13° WSW 03:49:19 56° NW 03:55:48 10° NE
CZ-4B R/B 4.2 03:45:29 10° N 03:50:02 35° WNW 03:54:40 10° SW
Cosmos 1340 Rocket 3.5 03:47:45 10° NNW 03:51:23 33° W 03:54:59 10° SSW
Cosmos 2237 Rocket 2.3 03:47:32 10° SSW 03:53:12 83° ESE 03:58:56 10° NNE
Landsat 5 3.8 03:49:32 10° SSE 03:53:32 66° ENE 03:57:25 10° N
SKYMED 2 4.3 03:49:31 10° SSE 03:53:47 58° ENE 03:58:05 10° N
Lacrosse 4 Rocket 2.7 03:53:08 10° WNW 03:56:08 19° WSW 03:59:10 10° SSW
CZ-2C R/B 3.4 03:52:31 10° N 03:56:17 39° WNW 03:59:59 10° SW
Cosmos 2333 Rocket 3.2 03:54:12 11° WSW 03:58:58 30° NW 04:03:57 10° NNE
Envisat 4.2 03:55:41 10° NNE 04:00:36 47° E 04:05:30 10° S
Meteor 2-6 Rocket 4.1 03:56:22 10° SSW 04:01:48 81° WNW 04:07:24 10° N
Cosmos 1544 3.7 03:58:57 10° N 04:02:36 63° ENE 04:06:15 10° SSE
Cosmos 1470 Rocket 3.6 03:58:21 10° NNW 04:02:46 59° W 04:07:06 10° S
ALOS 2.9 03:59:40 10° N 04:03:56 36° WNW 04:08:10 10° SW
Cosmos 1933 Rocket 3.5 04:00:10 10° N 04:04:34 86° WSW 04:08:58 10° S
Cosmos 1452 Rocket 4.2 03:59:51 10° WSW 04:04:39 35° WNW 04:09:30 10° N
ARIANE 5 R/B 3.9 04:01:49 10° N 04:05:34 21° WNW 04:09:15 10° WSW
Cosmos 1666 Rocket 4.5 04:02:55 10° NNW 04:06:33 26° W 04:10:09 10° SW
SJ 16-02 4.5 04:08:11 10° NNE 04:09:48 12° NE 04:11:26 10° ENE
NOSS 2-2 (C) 3.0 04:11:09 10° SW 04:14:33 83° NW 04:18:20 10° NE
Cosmos 1812 3.5 04:11:36 10° SW 04:15:03 31° WNW 04:18:33 10° N
IRAS Rocket 4.3 04:10:44 10° SSE 04:16:18 81° WSW 04:21:57 10° NNW
Cosmos 2285 Rocket 4.1 04:10:27 10° SW 04:16:40 63° WNW 04:22:57 10° NNE
